weather.gov     
National Weather Service

Terminal Aerodrome Forecast
NWS Homepage
This page is being discontinued on March 12, 2014.
The same data is available at this site. Please update your bookmarks.
Thank you, and we apologize for the inconvenience.
Please send an email to SR-SRH.Webmaster@noaa.gov with any concerns.


Current Version
Previous Version:    01  02  03  04  05  06  07  08  09  10  11  12  13  14  15  16  17  18  19  20  21  22  23  24  25  26  27  
[Printable]
246
FTUS46 KPDT 301700
TAFBDN
TAF
KBDN 301740Z 3018/3118 23007KT P6SM FEW150 SCT250
     FM302200 34011KT P6SM VCTS SCT120CB BKN150
      TEMPO 3023/3102 VRB20G35KT TSRA BKN100CB BKN120
     FM310200 30006KT P6SM SCT120 BKN200=


U.S. Dept. of Commerce
NOAA National Weather Service
1325 East West Highway
Silver Spring, MD 20910
E-mail: w-nws.webmaster@noaa.gov
Page last modified: May 16, 2007
NATIONAL WEATHER SERVICE: for Safety, for Work, for Fun - FOR LIFE